GW4458 Weather Reports


time (UTC)temp
C
wind
direction
speed
KPH
gust
KPH
rain 1hr
cm
rain 24hr
cm
rain mn
cm
humidity
%
barometer
mb
20260505152520 25 188 3.2 4.8 0.00 0.00 0.00 43 993.8
20260505151547 24 182 3.2 6.4 0.00 0.00 0.00 47 993.9
20260505150525 23 135 4.8 9.7 0.00 0.00 0.00 49 993.7
20260505140525 22 316 0.0 3.2 0.00 0.00 0.00 51 994.0
20260505124525 16 148 1.6 4.8 0.00 0.00 0.00 68 993.5
20260505123525 15 183 0.0 3.2 0.00 0.00 0.00 74 993.4
20260505122521 14 0.0 0.0 0.00 0.00 0.00 79 993.4
20260505121524 14 158 0.0 1.6 0.00 0.00 0.00 79 993.2
20260505120525 14 150 0.0 3.2 0.00 0.00 0.00 79 993.1
20260505115524 13 0.0 0.0 0.00 0.00 0.00 82 993.0
20260505114545 12 0.0 0.0 0.00 0.00 0.00 83 993.1
20260505113526 11 0.0 0.0 0.00 0.00 0.00 87 992.9
20260505112526 11 0.0 0.0 0.00 0.00 0.00 89 992.7
20260505111524 10 0.0 0.0 0.00 0.00 0.00 89 992.5
20260505110520 10 0.0 0.0 0.00 0.00 0.00 88 992.4
20260505101521 11 0.0 1.6 0.00 0.00 0.00 83 992.2
20260505100524 11 151 0.0 3.2 0.00 0.00 0.00 81 992.1
20260505095530 11 139 1.6 3.2 0.00 0.00 0.00 82 992.4
20260505094545 11 141 0.0 3.2 0.00 0.00 0.00 82 992.5
20260505093524 11 0.0 0.0 0.00 0.00 0.00 83 992.5
20260505092545 10 0.0 0.0 0.00 0.00 0.00 83 992.2
20260505091519 10 0.0 0.0 0.00 0.00 0.00 83 992.1
20260505090524 11 0.0 0.0 0.00 0.00 0.00 83 992.2
20260505085527 11 0.0 0.0 0.00 0.00 0.00 83 992.4
20260505084525 11 0.0 0.0 0.00 0.00 0.00 83 992.5
20260505083524 11 305 0.0 3.2 0.00 0.00 0.00 83 992.5
20260505082520 11 278 0.0 1.6 0.00 0.00 0.00 84 992.4
20260505081540 11 0.0 1.6 0.00 0.00 0.00 85 992.4
20260505080529 11 0.0 0.0 0.00 0.00 0.00 85 992.4
20260505075525 11 0.0 0.0 0.00 0.00 0.00 83 992.4
20260505074544 11 0.0 0.0 0.00 0.00 0.00 83 992.3
20260505073524 11 0.0 0.0 0.00 0.00 0.00 82 992.4
20260505072524 11 0.0 0.0 0.00 0.00 0.00 81 992.5
20260505071528 11 0.0 0.0 0.00 0.00 0.00 81 992.6
20260505070525 11 0.0 0.0 0.00 0.00 0.00 81 992.5
20260505065525 11 0.0 0.0 0.00 0.00 0.00 79 992.5
20260505064524 11 0.0 0.0 0.00 0.00 0.00 79 992.4
20260505063524 12 255 0.0 1.6 0.00 0.00 0.00 79 992.4
20260505062525 12 153 0.0 3.2 0.00 0.00 0.00 78 992.5
20260505061547 12 0.0 0.0 0.00 0.00 0.00 76 992.5
20260505060524 13 0.0 1.6 0.00 0.00 0.00 74 992.5
20260505055545 13 0.0 0.0 0.00 0.00 0.00 72 992.6
20260505054526 13 0.0 0.0 0.00 0.00 0.00 69 992.6
20260505053544 13 0.0 0.0 0.00 0.00 0.00 69 992.7
20260505052527 13 135 0.0 3.2 0.00 0.00 0.00 70 992.7
20260505051520 13 0.0 1.6 0.00 0.00 0.00 70 992.7
20260505050524 13 0.0 0.0 0.00 0.00 0.00 71 992.7
20260505041526 14 0.0 0.0 0.00 0.00 0.00 65 992.6
20260505040525 15 0.0 0.0 0.00 0.00 0.00 63 992.5
20260505035525 15 0.0 0.0 0.00 0.00 0.00 60 992.5
20260505034524 16 0.0 0.0 0.00 0.00 0.00 59 992.6
20260505033530 16 0.0 0.0 0.00 0.00 0.00 59 992.7
20260505032526 16 0.0 0.0 0.00 0.00 0.00 59 992.8
20260505031524 16 140 0.0 3.2 0.00 0.00 0.00 59 992.7
20260505030520 16 127 0.0 1.6 0.00 0.00 0.00 59 992.7
20260505025525 16 154 0.0 1.6 0.00 0.00 0.00 58 992.7
20260505024530 16 274 0.0 3.2 0.00 0.00 0.00 58 992.6
20260505023526 17 149 1.6 4.8 0.00 0.00 0.00 57 992.5
20260505022525 17 0.0 0.0 0.00 0.00 0.00 56 992.5
20260505021521 17 218 0.0 1.6 0.00 0.00 0.00 55 992.3
20260505020539 17 0.0 0.0 0.00 0.00 0.00 54 992.3
20260505015545 18 0.0 0.0 0.00 0.00 0.00 54 992.2
20260505014526 18 0.0 0.0 0.00 0.00 0.00 53 992.1
20260505013524 18 0.0 0.0 0.00 0.00 0.00 53 992.0
20260505012524 19 0.0 0.0 0.00 0.00 0.00 52 991.9
20260505011520 20 175 0.0 4.8 0.00 0.00 0.00 50 991.9
20260505010524 20 201 0.0 1.6 0.00 0.00 0.00 49 991.8
20260505005530 21 176 0.0 3.2 0.00 0.00 0.00 49 991.8
20260505004545 21 150 0.0 3.2 0.00 0.00 0.00 46 991.7
20260505003525 22 156 1.6 3.2 0.00 0.00 0.00 44 991.6
20260505002525 23 209 0.0 3.2 0.00 0.00 0.00 41 991.5
20260505001525 23 215 1.6 3.2 0.00 0.00 0.00 40 991.5
20260505000524 24 228 1.6 6.4 0.00 0.00 0.00 38 991.5
20260504235526 25 195 1.6 6.4 0.00 0.00 0.00 36 991.5
20260504234526 26 223 3.2 6.4 0.00 0.00 0.00 34 991.4
20260504233607 26 222 4.8 11.3 0.00 0.00 0.00 33 991.4
20260504232519 26 220 3.2 8.0 0.00 0.00 0.00 34 991.4
20260504231521 26 223 3.2 11.3 0.00 0.00 0.00 34 991.4
20260504230527 26 194 3.2 6.4 0.00 0.00 0.00 34 991.3
20260504225524 26 191 4.8 8.0 0.00 0.00 0.00 33 991.4
20260504224525 27 221 4.8 12.9 0.00 0.00 0.00 32 991.5
20260504223526 26 227 8.0 14.5 0.00 0.00 0.00 31 991.5
20260504222524 27 198 6.4 11.3 0.00 0.00 0.00 32 991.5
20260504221528 27 208 8.0 14.5 0.00 0.00 0.00 32 991.4
20260504220520 27 210 4.8 12.9 0.00 0.00 0.00 32 991.5
20260504215544 27 232 6.4 12.9 0.00 0.00 0.00 33 991.4
20260504214524 27 218 8.0 17.7 0.00 0.00 0.00 34 991.4
20260504213525 28 216 6.4 12.9 0.00 0.00 0.00 32 991.5
20260504212525 28 200 4.8 9.7 0.00 0.00 0.00 32 991.4
20260504211526 28 186 4.8 11.3 0.00 0.00 0.00 32 991.4
20260504210526 27 132 6.4 11.3 0.00 0.00 0.00 31 991.4
20260504205525 28 195 6.4 11.3 0.00 0.00 0.00 30 991.5
20260504204531 28 177 4.8 9.7 0.00 0.00 0.00 33 991.6
20260504203525 27 264 6.4 11.3 0.00 0.00 0.00 33 991.7
20260504202530 27 249 4.8 11.3 0.00 0.00 0.00 33 991.8
20260504201524 27 218 6.4 12.9 0.00 0.00 0.00 31 992.0
20260504200525 28 214 3.2 8.0 0.00 0.00 0.00 30 992.1
20260504195546 28 218 3.2 6.4 0.00 0.00 0.00 32 992.2
20260504194525 28 141 3.2 8.0 0.00 0.00 0.00 31 992.4
20260504193530 28 216 3.2 8.0 0.00 0.00 0.00 32 992.6
20260504192525 27 234 4.8 9.7 0.00 0.00 0.00 34 992.8
20260504191548 27 304 4.8 9.7 0.00 0.00 0.00 33 992.9
20260504190543 28 171 3.2 6.4 0.00 0.00 0.00 31 993.1
20260504185525 28 231 3.2 6.4 0.00 0.00 0.00 34 993.2
20260504184525 27 41 3.2 8.0 0.00 0.00 0.00 35 993.4
20260504183522 27 179 4.8 8.0 0.00 0.00 0.00 36 993.5
20260504182525 27 205 3.2 8.0 0.00 0.00 0.00 35 993.6
20260504181524 26 187 3.2 4.8 0.00 0.00 0.00 37 993.6
20260504180521 26 206 3.2 6.4 0.00 0.00 0.00 36 993.9
20260504175525 26 164 4.8 9.7 0.00 0.00 0.00 37 994.0
20260504174552 26 342 4.8 9.7 0.00 0.00 0.00 36 994.0
20260504173545 25 262 6.4 11.3 0.00 0.00 0.00 37 994.3
20260504172525 26 306 6.4 11.3 0.00 0.00 0.00 38 994.4
20260504171525 26 239 3.2 9.7 0.00 0.00 0.00 37 994.5
20260504170522 25 141 3.2 6.4 0.00 0.00 0.00 37 994.8